Gainesville, FL

11:13 AM EDT on April 25, 2018 (GMT -0400)
Gainesville Regional

Weather History for KGNV - January, 2014

Change the Weather History Date:

Friday, January 31, 2014

  Actual Average Record
Temperature  
Mean Temperature 51 °F 55 °F  
Max Temperature 61 °F 67 °F 85 °F (1975)
Min Temperature 40 °F 43 °F 17 °F (1966)
Degree Days  
Heating Degree Days 14 10  
Month to date heating degree days 450 345  
Since 1 July heating degree days 715 802  
Cooling Degree Days 0 0  
Month to date cooling degree days 10 12  
Year to date cooling degree days 10 12  
Moisture  
Dew Point 45 °F    
Average Humidity 81    
Maximum Humidity 93    
Minimum Humidity 69    
Precipitation  
Precipitation T in 0.12 in 0.99 in (1901)
Month to date precipitation 5.20 3.31  
Year to date precipitation 5.20 3.31  
Snow  
Snow 0.00 in 0.00 in 0.00 in ()
Month to date snowfall 0.0 0.0  
Since 1 July snowfall 0.0 0.0  
Snow Depth 0.00 in    
Sea Level Pressure  
Sea Level Pressure 30.15 in    
Wind  
Wind Speed 6 mph (NE)    
Max Wind Speed 12 mph    
Max Gust Speed 16 mph    
Visibility 9 miles    
Events Rain    
T = Trace of Precipitation, MM = Missing Value Source: NWS Daily Summary

Daily Weather History Graph

Daily Weather History Graph

Search for Another Location

Airport or City:

Astronomy

Jan. 31, 2014 Rise Set
Actual Time 7:19 AM EST 6:06 PM EST
Civil Twilight 6:54 AM EST 6:31 PM EST
Nautical Twilight 6:25 AM EST 6:59 PM EST
Astronomical Twilight 5:57 AM EST 7:27 PM EST
Moon 7:35 AM EST (1/31) 7:19 PM EST (1/31)
Length of Visible Light 11h 36m
Length of Day
10h 46m
New Moon, 1% of the Moon is Illuminated
Jan 31
New Moon
Feb 6
First Quarter
Feb 14
Full
Feb 22
Last Quarter
Mar 1
New

Hourly Weather History & Observations

Time (EST) Temp. Windchill Dew Point Humidity Pressure Visibility Wind Dir Wind Speed Gust Speed Precip Events Conditions
12:53 AM 39.9 °F 35.1 °F 35.1 °F 83% 30.14 in 10.0 mi East 6.9 mph - N/A   Overcast
1:53 AM 41.0 °F 38.0 °F 36.0 °F 82% 30.16 in 10.0 mi NE 4.6 mph - N/A   Overcast
2:53 AM 42.1 °F 39.2 °F 36.0 °F 79% 30.14 in 10.0 mi NE 4.6 mph - N/A   Overcast
3:53 AM 42.1 °F 39.2 °F 37.0 °F 82% 30.13 in 10.0 mi Variable 4.6 mph - N/A   Overcast
4:12 AM 42.1 °F 37.7 °F 37.0 °F 82% 30.12 in 10.0 mi NNE 6.9 mph - N/A   Overcast
4:30 AM 42.1 °F 38.4 °F 37.0 °F 82% 30.14 in 10.0 mi North 5.8 mph - N/A   Overcast
4:53 AM 42.1 °F 37.1 °F 37.0 °F 82% 30.15 in 10.0 mi NNE 8.1 mph - N/A   Overcast
5:08 AM 42.1 °F 38.4 °F 37.0 °F 82% 30.15 in 10.0 mi North 5.8 mph - N/A   Overcast
5:53 AM 43.0 °F 38.2 °F 37.0 °F 80% 30.14 in 10.0 mi NNE 8.1 mph - N/A   Overcast
6:07 AM 43.0 °F 39.5 °F 37.9 °F 82% 30.15 in 10.0 mi NNE 5.8 mph - N/A   Overcast
6:16 AM 43.0 °F 38.2 °F 37.9 °F 82% 30.16 in 10.0 mi North 8.1 mph - N/A   Overcast
6:53 AM 43.0 °F 38.8 °F 37.9 °F 82% 30.18 in 10.0 mi NNE 6.9 mph - N/A   Overcast
7:01 AM 42.1 °F 36.1 °F 37.9 °F 85% 30.16 in 10.0 mi NNE 10.4 mph - N/A   Overcast
7:18 AM 42.1 °F 37.1 °F 37.9 °F 85% 30.17 in 10.0 mi NNE 8.1 mph - N/A   Overcast
7:28 AM 42.1 °F 38.4 °F 37.9 °F 85% 30.16 in 10.0 mi NNE 5.8 mph - N/A   Overcast
7:53 AM 43.0 °F 39.5 °F 37.9 °F 82% 30.18 in 10.0 mi North 5.8 mph - N/A   Overcast
8:45 AM 43.0 °F 38.8 °F 37.9 °F 82% 30.19 in 10.0 mi NNE 6.9 mph - N/A   Overcast
8:53 AM 44.1 °F 39.0 °F 37.9 °F 79% 30.19 in 10.0 mi North 9.2 mph - N/A   Overcast
9:53 AM 46.0 °F 42.5 °F 39.9 °F 79% 30.20 in 10.0 mi North 6.9 mph - N/A   Overcast
10:53 AM 50.0 °F - 43.0 °F 77% 30.20 in 10.0 mi NE 5.8 mph - N/A   Overcast
11:53 AM 53.1 °F - 46.0 °F 77% 30.18 in 10.0 mi NNE 5.8 mph - N/A   Overcast
12:05 PM 54.0 °F - 46.0 °F 75% 30.17 in 10.0 mi NE 6.9 mph - N/A   Overcast
12:53 PM 57.9 °F - 48.0 °F 70% 30.15 in 10.0 mi NE 5.8 mph - N/A   Overcast
1:53 PM 60.1 °F - 50.0 °F 69% 30.12 in 10.0 mi ENE 6.9 mph - N/A   Overcast
2:53 PM 60.1 °F - 51.1 °F 72% 30.12 in 10.0 mi NE 9.2 mph - N/A   Overcast
3:03 PM 60.1 °F - 51.1 °F 72% 30.12 in 9.0 mi ENE 8.1 mph - N/A   Overcast
3:53 PM 60.1 °F - 52.0 °F 75% 30.10 in 10.0 mi NNE 9.2 mph - N/A   Overcast
4:53 PM 61.0 °F - 52.0 °F 72% 30.12 in 10.0 mi NNE 3.5 mph - N/A   Overcast
5:53 PM 60.1 °F - 52.0 °F 75% 30.14 in 10.0 mi Calm Calm - N/A   Overcast
6:13 PM 59.0 °F - 52.0 °F 78% 30.14 in 5.0 mi Calm Calm - 0.00 in Rain Light Rain
6:25 PM 57.9 °F - 53.1 °F 84% 30.13 in 2.5 mi NNE 5.8 mph - 0.00 in Rain Light Rain
6:32 PM 57.0 °F - 54.0 °F 89% 30.14 in 5.0 mi NNE 4.6 mph - 0.00 in Rain Light Rain
6:39 PM 57.0 °F - 54.0 °F 89% 30.13 in 7.0 mi North 5.8 mph - 0.00 in Rain Light Rain
6:53 PM 57.0 °F - 54.0 °F 89% 30.14 in 10.0 mi NNE 6.9 mph - 0.00 in   Overcast
7:45 PM 55.0 °F - 54.0 °F 96% 30.14 in 8.0 mi East 8.1 mph - N/A   Overcast
7:53 PM 55.0 °F - 53.1 °F 93% 30.15 in 8.0 mi ENE 5.8 mph - N/A   Overcast
8:53 PM 54.0 °F - 52.0 °F 93% 30.14 in 9.0 mi ENE 8.1 mph - 0.00 in   Overcast
9:02 PM 54.0 °F - 52.0 °F 93% 30.14 in 9.0 mi ENE 8.1 mph - N/A   Overcast
9:53 PM 54.0 °F - 52.0 °F 93% 30.15 in 9.0 mi ENE 5.8 mph - N/A   Overcast
10:00 PM 54.0 °F - 52.0 °F 93% 30.14 in 9.0 mi ENE 5.8 mph - N/A   Overcast
10:53 PM 53.1 °F - 52.0 °F 96% 30.13 in 9.0 mi ENE 8.1 mph - N/A   Overcast
11:06 PM 54.0 °F - 52.0 °F 93% 30.13 in 9.0 mi East 4.6 mph - N/A   Overcast
11:53 PM 54.0 °F - 52.0 °F 93% 30.12 in 9.0 mi East 4.6 mph - N/A   Overcast